EW2549 Weather Reports


time (UTC)temp
C
wind
direction
speed
KPH
gust
KPH
rain 1hr
cm
rain 24hr
cm
rain mn
cm
humidity
%
barometer
mb
20260906013005 27 313 1.6 9.7 0.00 0.00 0.00 28 1002.3
20260906011511 28 331 0.0 4.8 0.00 0.00 0.00 27 1002.3
20260906010004 28 281 0.0 6.4 0.00 0.00 0.00 27 1002.3
20260906004503 29 317 0.0 11.3 0.00 0.00 0.00 25 1002.1
20260906001502 31 5 0.0 1.6 0.00 0.00 0.00 23 1002.1
20260906000001 32 18 0.0 0.0 0.00 0.00 0.00 23 1002.0
20260905234502 33 65 0.0 0.0 0.00 0.00 0.00 22 1002.0
20260905233111 33 65 0.0 0.0 0.00 0.00 0.00 21 1002.0
20260905231600 34 38 0.0 0.0 0.00 0.00 0.00 20 1001.8
20260905230059 35 113 0.0 4.8 0.00 0.00 0.00 18 1001.8
20260905224608 34 87 0.0 6.4 0.00 0.00 0.00 18 1001.8
20260905223058 35 71 0.0 6.4 0.00 0.00 0.00 18 1001.7
20260905221559 35 238 0.0 8.0 0.00 0.00 0.00 19 1001.9
20260905214552 35 30 0.0 6.4 0.00 0.00 0.00 18 1002.1
20260905213057 35 360 0.0 8.0 0.00 0.00 0.00 19 1002.3
20260905211550 35 80 0.0 11.3 0.00 0.00 0.00 19 1002.6
20260905210104 35 96 0.0 1.6 0.00 0.00 0.00 19 1002.7
20260905204544 34 336 0.0 8.0 0.00 0.00 0.00 19 1002.8
20260905203043 33 298 0.0 12.9 0.00 0.00 0.00 21 1003.1
20260905201540 32 114 0.0 12.9 0.00 0.00 0.00 20 1003.3
20260905200052 32 74 0.0 11.3 0.00 0.00 0.00 22 1003.5
20260905194538 32 17 0.0 6.4 0.00 0.00 0.00 22 1003.6
20260905193035 32 101 1.6 12.9 0.00 0.00 0.00 21 1003.7
20260905191540 32 69 0.0 12.9 0.00 0.00 0.00 21 1003.9
20260905190034 32 25 1.6 8.0 0.00 0.00 0.00 22 1004.1
20260905184535 32 74 1.6 16.1 0.00 0.00 0.00 23 1004.2
20260905183026 31 129 0.0 11.3 0.00 0.00 0.00 25 1004.3
20260905181524 31 123 0.0 6.4 0.00 0.00 0.00 27 1004.4
20260905180023 31 144 0.0 12.9 0.00 0.00 0.00 26 1004.6
20260905174520 30 107 1.6 9.7 0.00 0.00 0.00 27 1004.7
20260905173018 30 139 0.0 6.4 0.00 0.00 0.00 28 1004.7
20260905171617 30 109 0.0 12.9 0.00 0.00 0.00 27 1004.7
20260905170017 30 113 0.0 8.0 0.00 0.00 0.00 28 1004.5
20260905164516 30 118 0.0 9.7 0.00 0.00 0.00 30 1004.5
20260905163009 29 171 0.0 11.3 0.00 0.00 0.00 28 1004.4
20260905161505 27 96 0.0 8.0 0.00 0.00 0.00 33 1004.3
20260905160002 26 138 0.0 0.0 0.00 0.00 0.00 36 1004.4
20260905154559 25 209 0.0 0.0 0.00 0.00 0.00 40 1004.4
20260905153053 23 260 0.0 0.0 0.00 0.00 0.00 43 1004.3
20260905151552 23 261 0.0 0.0 0.00 0.00 0.00 49 1004.5
20260905150048 23 261 0.0 0.0 0.00 0.00 0.00 44 1004.6
20260905144551 21 261 0.0 0.0 0.00 0.00 0.00 52 1004.7
20260905143042 20 260 0.0 0.0 0.00 0.00 0.00 55 1004.9
20260905141540 17 260 0.0 0.0 0.00 0.00 0.00 58 1004.9
20260905140041 16 260 0.0 0.0 0.00 0.00 0.00 61 1004.8
20260905134544 15 261 0.0 0.0 0.00 0.00 0.00 65 1004.6
20260905133037 15 261 0.0 0.0 0.00 0.00 0.00 64 1004.7
20260905131535 14 261 0.0 0.0 0.00 0.00 0.00 61 1004.6
20260905130034 14 261 0.0 0.0 0.00 0.00 0.00 58 1004.6
20260905124540 14 261 0.0 0.0 0.00 0.00 0.00 57 1004.3
20260905123029 15 261 0.0 0.0 0.00 0.00 0.00 57 1004.1
20260905121526 15 261 0.0 0.0 0.00 0.00 0.00 57 1004.1
20260905120027 15 261 0.0 0.0 0.00 0.00 0.00 56 1003.9
20260905114521 15 261 0.0 8.0 0.00 0.00 0.00 54 1003.9
20260905113019 16 276 0.0 0.0 0.00 0.00 0.00 53 1003.9
20260905111516 16 276 0.0 0.0 0.00 0.00 0.00 52 1003.9
20260905104520 17 277 0.0 0.0 0.00 0.00 0.00 51 1003.7
20260905103011 17 277 0.0 0.0 0.00 0.00 0.00 50 1003.6
20260905101509 17 240 0.0 0.0 0.00 0.00 0.00 50 1003.6
20260905100007 17 240 0.0 0.0 0.00 0.00 0.00 49 1003.7
20260905094506 17 240 0.0 0.0 0.00 0.00 0.00 49 1003.5
20260905093006 17 240 0.0 0.0 0.00 0.00 0.00 50 1003.4
20260905091506 17 240 0.0 8.0 0.00 0.00 0.00 50 1003.2
20260905090004 17 311 0.0 0.0 0.00 0.00 0.00 52 1003.3
20260905084506 16 311 0.0 0.0 0.00 0.00 0.00 52 1003.3
20260905083003 16 335 0.0 0.0 0.00 0.00 0.00 51 1003.4
20260905081500 17 335 0.0 0.0 0.00 0.00 0.00 50 1003.4
20260905080101 17 335 0.0 0.0 0.00 0.00 0.00 52 1003.4
20260905074555 17 335 0.0 0.0 0.00 0.00 0.00 51 1003.4
20260905073052 17 335 0.0 0.0 0.00 0.00 0.00 48 1003.5
20260905071558 18 335 0.0 0.0 0.00 0.00 0.00 49 1003.5
20260905070048 18 334 0.0 0.0 0.00 0.00 0.00 47 1003.4
20260905064552 18 334 0.0 0.0 0.00 0.00 0.00 44 1003.3
20260905063041 19 334 0.0 0.0 0.00 0.00 0.00 44 1003.0
20260905061555 20 335 0.0 0.0 0.00 0.00 0.00 42 1003.3
20260905060034 20 335 0.0 0.0 0.00 0.00 0.00 41 1003.2
20260905054534 21 335 0.0 0.0 0.00 0.00 0.00 39 1003.0
20260905053033 21 335 0.0 0.0 0.00 0.00 0.00 37 1003.1
20260905051540 22 335 0.0 0.0 0.00 0.00 0.00 37 1002.9
20260905050033 22 335 0.0 0.0 0.00 0.00 0.00 36 1002.9
20260905044532 22 335 0.0 0.0 0.00 0.00 0.00 36 1002.9
20260905043059 23 315 0.0 0.0 0.00 0.00 0.00 35 1002.9
20260905041531 23 325 0.0 0.0 0.00 0.00 0.00 35 1002.9
20260905040033 23 324 0.0 0.0 0.00 0.00 0.00 37 1003.0
20260905034630 24 326 0.0 3.2 0.00 0.00 0.00 34 1003.0
20260905033030 24 335 0.0 0.0 0.00 0.00 0.00 34 1003.2
20260905031529 24 81 0.0 0.0 0.00 0.00 0.00 34 1002.9
20260905030028 25 81 0.0 0.0 0.00 0.00 0.00 34 1002.8
20260905024530 25 81 0.0 0.0 0.00 0.00 0.00 33 1002.6
20260905023031 26 81 0.0 0.0 0.00 0.00 0.00 33 1002.3
20260905021533 26 81 0.0 0.0 0.00 0.00 0.00 33 1002.0
20260905020026 26 81 0.0 0.0 0.00 0.00 0.00 30 1001.9
20260905014525 27 81 0.0 0.0 0.00 0.00 0.00 28 1001.8